2023-007A (55248 NORAD) Tracking and Keplerian Element Data

This shows tracking and keplerian element data for the satellite.

Feedback or suggestion? Click here.




ElementValue
Catalog55248
Name2023-007A
Epoch Orbit1696
Epoch Day126.50758402
Epoch Year2023
RAAN199.0004
Inclination97.3617
Eccentricity0.0016083
Argument of Perigee136.7637
Mean Anonmoly279.5369
Mean Motion15.21231529
Decay Rate0.00012337
L11 55248U 23007A 23126.50758402 .00012337 00000+0 55333-3 0 9998
L22 55248 97.3617 199.0004 0016083 136.7637 279.5369 15.21231529 16967



Live tracking and technical data element details for 2023-007A (NORAD 55248). 2023-007A can be tracked NOW for your location showing map with azimuth and elevation plus other details from your city location.







IsCatalogInMostPopularTable: catalog: 55248, numindb: -1

Insert: records affected: 1


GetName: 55248 2023-007A

Hit Count: inserted at: Mon, 05 Jun 2023 20:56:57 GMT